"read_dt","SO2 (ppb)","flags","PMT voltage (V)","lamp voltage (V)","lamp intensity (Hz)","internal temp (C)","react chamber temp (C)","sample flow (l/min)","pres (mmHg)","SO2 bkg (ppb)","SO2 coefficient"
2016-05-05 00:00:00,1961E-3,5C000400,-0724,0835,12274,032.7,045.6,0.246,753.9,01.17,0.508
2016-05-05 00:01:00,1847E-3,5C000400,-0724,0835,11993,032.8,045.6,0.246,753.9,01.17,0.508
2016-05-05 00:02:00,2042E-3,5C000400,-0724,0835,12107,032.7,045.6,0.246,753.9,01.17,0.508
2016-05-05 00:03:00,1965E-3,5C000400,-0724,0834,12063,032.7,045.6,0.246,753.9,01.17,0.508
2016-05-05 00:04:00,1925E-3,5C000400,-0724,0835,12212,032.8,045.6,0.246,753.9,01.17,0.508
2016-05-05 00:05:00,1900E-3,5C000400,-0724,0835,12141,032.8,045.6,0.246,753.9,01.17,0.508
2016-05-05 00:06:00,1845E-3,5C000400,-0724,0835,12154,032.8,045.6,0.246,753.9,01.17,0.508
2016-05-05 00:07:00,1888E-3,5C000400,-0724,0835,12276,032.8,045.6,0.246,753.9,01.17,0.508
2016-05-05 00:08:00,2041E-3,5C000400,-0724,0834,12052,032.8,045.6,0.246,753.8,01.17,0.508
2016-05-05 00:09:00,1937E-3,5C000400,-0724,0834,12090,032.8,045.6,0.247,753.8,01.17,0.508
2016-05-05 00:10:00,1922E-3,5C000400,-0724,0835,12211,032.8,045.6,0.247,753.8,01.17,0.508
2016-05-05 00:11:00,1879E-3,5C000400,-0724,0835,12182,032.8,045.6,0.246,753.9,01.17,0.508
2016-05-05 00:12:00,1940E-3,5C000400,-0724,0835,12091,032.8,045.6,0.246,753.9,01.17,0.508
2016-05-05 00:13:00,2105E-3,5C000400,-0724,0835,12141,032.8,045.6,0.245,753.9,01.17,0.508
2016-05-05 00:14:00,2061E-3,5C000400,-0724,0834,12234,032.8,045.6,0.246,753.9,01.17,0.508
2016-05-05 00:15:00,1799E-3,5C000400,-0724,0834,12207,032.8,045.6,0.246,753.9,01.17,0.508
2016-05-05 00:16:00,2079E-3,5C000400,-0724,0834,12308,032.8,045.6,0.246,753.9,01.17,0.508
2016-05-05 00:17:00,1896E-3,5C000400,-0724,0834,12023,032.8,045.6,0.246,753.9,01.17,0.508
2016-05-05 00:18:00,1947E-3,5C000400,-0724,0835,12132,032.9,045.6,0.246,753.9,01.17,0.508
2016-05-05 00:19:00,2015E-3,5C000400,-0724,0835,12137,032.8,045.6,0.246,753.9,01.17,0.508
2016-05-05 00:20:00,1835E-3,5C000400,-0724,0834,12224,032.9,045.6,0.246,753.9,01.17,0.508
2016-05-05 00:21:00,1980E-3,5C000400,-0724,0835,12161,032.8,045.6,0.246,753.8,01.17,0.508
2016-05-05 00:22:00,1945E-3,5C000400,-0724,0835,12171,032.8,045.6,0.246,753.8,01.17,0.508
2016-05-05 00:23:00,2086E-3,5C000400,-0724,0834,12074,032.7,045.6,0.246,753.8,01.17,0.508
2016-05-05 00:24:00,1953E-3,5C000400,-0724,0834,12153,032.7,045.6,0.246,753.8,01.17,0.508
2016-05-05 00:25:00,1939E-3,5C000400,-0724,0834,12056,032.6,045.6,0.246,753.8,01.17,0.508
2016-05-05 00:26:00,2135E-3,5C000400,-0724,0835,12127,032.6,045.6,0.246,753.9,01.17,0.508
2016-05-05 00:27:00,1966E-3,5C000400,-0724,0834,11914,032.5,045.6,0.246,753.9,01.17,0.508
2016-05-05 00:28:00,1975E-3,5C000400,-0724,0834,12227,032.4,045.6,0.246,753.9,01.17,0.508
2016-05-05 00:29:00,2003E-3,5C000400,-0724,0836,12066,032.4,045.6,0.246,753.9,01.17,0.508
2016-05-05 00:30:00,1926E-3,5C000400,-0724,0834,12071,032.3,045.6,0.246,753.9,01.17,0.508
2016-05-05 00:31:00,1892E-3,5C000400,-0724,0834,11965,032.2,045.6,0.247,753.9,01.17,0.508
2016-05-05 00:32:00,1950E-3,5C000400,-0724,0835,12093,032.2,045.6,0.247,753.9,01.17,0.508
2016-05-05 00:33:00,1857E-3,5C000400,-0724,0836,12213,032.2,045.6,0.247,753.9,01.17,0.508
2016-05-05 00:34:00,2001E-3,5C000400,-0724,0834,12113,032.1,045.6,0.247,753.9,01.17,0.508
2016-05-05 00:35:00,1950E-3,5C000400,-0724,0835,12206,032.1,045.5,0.247,753.9,01.17,0.508
2016-05-05 00:36:00,1989E-3,5C000400,-0724,0835,12175,032.0,045.5,0.247,753.9,01.17,0.508
2016-05-05 00:37:00,1908E-3,5C000400,-0724,0834,12272,032.0,045.5,0.247,753.9,01.17,0.508
2016-05-05 00:38:00,1961E-3,5C000400,-0724,0834,12063,031.9,045.6,0.247,753.9,01.17,0.508
2016-05-05 00:39:00,1869E-3,5C000400,-0724,0836,12119,031.9,045.5,0.247,754.0,01.17,0.508
2016-05-05 00:40:00,1998E-3,5C000400,-0724,0834,12143,031.9,045.5,0.247,754.0,01.17,0.508
2016-05-05 00:41:00,1832E-3,5C000400,-0724,0835,12136,031.8,045.5,0.247,754.0,01.17,0.508
2016-05-05 00:42:00,1874E-3,5C000400,-0724,0834,12356,031.8,045.5,0.248,754.0,01.17,0.508
2016-05-05 00:43:00,2005E-3,5C000400,-0724,0834,12248,031.7,045.5,0.248,754.0,01.17,0.508
2016-05-05 00:44:00,1945E-3,5C000400,-0724,0834,12166,031.7,045.5,0.248,754.0,01.17,0.508
2016-05-05 00:45:00,1993E-3,5C000400,-0724,0834,12136,031.7,045.5,0.248,753.9,01.17,0.508
2016-05-05 00:46:00,2110E-3,5C000400,-0724,0834,12258,031.7,045.5,0.248,753.9,01.17,0.508
2016-05-05 00:47:00,1990E-3,5C000400,-0724,0835,12229,031.6,045.5,0.248,753.9,01.17,0.508
2016-05-05 00:48:00,1846E-3,5C000400,-0724,0834,12235,031.6,045.5,0.248,753.9,01.17,0.508
2016-05-05 00:49:00,1925E-3,5C000400,-0724,0834,12089,031.6,045.5,0.248,753.9,01.17,0.508
2016-05-05 00:50:00,1969E-3,5C000400,-0724,0835,12145,031.6,045.5,0.248,753.9,01.17,0.508
2016-05-05 00:51:00,1716E-3,5C000400,-0724,0834,12293,031.5,045.5,0.248,753.9,01.17,0.508
2016-05-05 00:52:00,1938E-3,5C000400,-0724,0834,12227,031.6,045.5,0.248,753.9,01.17,0.508
2016-05-05 00:53:00,1914E-3,5C000400,-0724,0834,12013,031.5,045.5,0.248,753.9,01.17,0.508
2016-05-05 00:54:00,1956E-3,5C000400,-0724,0835,12121,031.5,045.5,0.248,753.9,01.17,0.508
2016-05-05 00:55:00,1946E-3,5C000400,-0724,0834,12174,031.4,045.5,0.248,753.9,01.17,0.508
2016-05-05 00:56:00,1916E-3,5C000400,-0724,0834,12183,031.4,045.5,0.248,753.9,01.17,0.508
2016-05-05 00:57:00,2032E-3,5C000400,-0724,0834,12128,031.4,045.5,0.248,753.9,01.17,0.508
2016-05-05 00:58:00,1894E-3,5C000400,-0724,0834,12045,031.4,045.5,0.248,753.9,01.17,0.508
2016-05-05 00:59:00,1791E-3,5C000400,-0724,0834,12240,031.3,045.5,0.249,753.9,01.17,0.508
2016-05-05 01:00:00,2054E-3,5C000400,-0724,0834,12189,031.3,045.5,0.249,753.9,01.17,0.508
2016-05-05 01:01:00,1855E-3,5C000400,-0724,0834,12223,031.3,045.5,0.249,753.9,01.17,0.508
2016-05-05 01:02:00,1900E-3,5C000400,-0724,0834,12209,031.3,045.5,0.249,753.9,01.17,0.508
2016-05-05 01:03:00,2026E-3,5C000400,-0724,0834,12043,031.3,045.5,0.249,753.9,01.17,0.508
2016-05-05 01:04:00,2022E-3,5C000400,-0724,0833,12173,031.3,045.5,0.249,753.9,01.17,0.508
2016-05-05 01:05:00,1989E-3,5C000400,-0724,0834,12099,031.3,045.5,0.249,753.9,01.17,0.508
2016-05-05 01:06:00,1913E-3,5C000400,-0724,0833,12203,031.3,045.5,0.249,753.9,01.17,0.508
2016-05-05 01:07:00,1822E-3,5C000400,-0724,0834,12375,031.3,045.5,0.249,753.9,01.17,0.508
2016-05-05 01:08:00,2121E-3,5C000400,-0724,0835,12184,031.3,045.5,0.250,753.8,01.17,0.508
2016-05-05 01:09:00,2019E-3,5C000400,-0724,0834,12226,031.3,045.5,0.250,753.8,01.17,0.508
2016-05-05 01:10:00,2112E-3,5C000400,-0724,0834,12070,031.2,045.5,0.250,753.8,01.17,0.508
2016-05-05 01:11:00,1920E-3,5C000400,-0724,0833,12234,031.2,045.5,0.249,753.8,01.17,0.508
2016-05-05 01:12:00,1916E-3,5C000400,-0724,0834,12232,031.2,045.5,0.249,753.9,01.17,0.508
2016-05-05 01:13:00,2090E-3,5C000400,-0724,0834,12008,031.1,045.5,0.249,753.8,01.17,0.508
2016-05-05 01:14:00,1965E-3,5C000400,-0724,0834,12150,031.1,045.5,0.249,753.9,01.17,0.508
2016-05-05 01:15:00,1972E-3,5C000400,-0724,0834,12150,031.0,045.5,0.249,753.8,01.17,0.508
2016-05-05 01:16:00,1945E-3,5C000400,-0724,0834,12120,031.0,045.5,0.249,753.9,01.17,0.508
2016-05-05 01:17:00,1967E-3,5C000400,-0724,0834,12154,031.0,045.5,0.250,753.9,01.17,0.508
2016-05-05 01:18:00,1980E-3,5C000400,-0724,0834,12140,031.0,045.5,0.250,753.8,01.17,0.508
2016-05-05 01:19:00,1949E-3,5C000400,-0724,0835,12216,031.0,045.5,0.250,753.8,01.17,0.508
2016-05-05 01:20:00,1971E-3,5C000400,-0724,0835,12206,031.0,045.5,0.250,753.8,01.17,0.508
2016-05-05 01:21:00,1911E-3,5C000400,-0724,0833,12206,031.0,045.5,0.250,753.8,01.17,0.508
2016-05-05 01:22:00,1893E-3,5C000400,-0724,0835,12082,031.1,045.5,0.249,753.8,01.17,0.508
2016-05-05 01:23:00,1910E-3,5C000400,-0724,0835,12147,031.1,045.5,0.249,753.8,01.17,0.508
2016-05-05 01:24:00,2014E-3,5C000400,-0724,0835,12080,031.0,045.5,0.250,753.8,01.17,0.508
2016-05-05 01:25:00,1958E-3,5C000400,-0724,0834,12280,031.0,045.5,0.250,753.8,01.17,0.508
2016-05-05 01:26:00,1984E-3,5C000400,-0724,0834,12164,031.0,045.5,0.250,753.8,01.17,0.508
2016-05-05 01:27:00,1955E-3,5C000400,-0724,0834,12161,031.0,045.5,0.250,753.8,01.17,0.508
2016-05-05 01:28:00,2054E-3,5C000400,-0724,0834,12122,031.0,045.5,0.249,753.8,01.17,0.508
2016-05-05 01:29:00,1979E-3,5C000400,-0724,0834,12222,030.9,045.5,0.249,753.8,01.17,0.508
2016-05-05 01:30:00,1861E-3,5C000400,-0724,0835,12169,030.9,045.5,0.250,753.8,01.17,0.508
2016-05-05 01:31:00,1949E-3,5C000400,-0724,0835,12198,030.9,045.5,0.250,753.8,01.17,0.508
2016-05-05 01:32:00,1873E-3,5C000400,-0724,0834,12114,030.9,045.5,0.250,753.8,01.17,0.508
2016-05-05 01:33:00,1968E-3,5C000400,-0724,0834,12155,030.9,045.5,0.250,753.8,01.17,0.508
2016-05-05 01:34:00,1920E-3,5C000400,-0724,0835,12117,030.9,045.5,0.250,753.8,01.17,0.508
2016-05-05 01:35:00,1995E-3,5C000400,-0724,0834,12186,030.8,045.5,0.250,753.8,01.17,0.508
2016-05-05 01:36:00,1896E-3,5C000400,-0724,0834,12070,030.9,045.5,0.249,753.8,01.17,0.508
2016-05-05 01:37:00,1951E-3,5C000400,-0724,0835,12151,030.9,045.5,0.250,753.8,01.17,0.508
2016-05-05 01:38:00,1947E-3,5C000400,-0724,0833,12032,030.8,045.5,0.250,753.8,01.17,0.508
2016-05-05 01:39:00,1941E-3,5C000400,-0724,0833,12184,030.8,045.5,0.250,753.8,01.17,0.508
2016-05-05 01:40:00,1970E-3,5C000400,-0724,0834,12105,030.7,045.5,0.250,753.8,01.17,0.508
2016-05-05 01:41:00,1932E-3,5C000400,-0724,0833,12171,030.8,045.5,0.250,753.8,01.17,0.508
2016-05-05 01:42:00,1882E-3,5C000400,-0724,0833,12273,030.9,045.5,0.250,753.8,01.17,0.508
2016-05-05 01:43:00,1849E-3,5C000400,-0724,0834,12164,030.8,045.5,0.250,753.7,01.17,0.508
2016-05-05 01:44:00,1950E-3,5C000400,-0724,0835,12090,030.9,045.5,0.250,753.8,01.17,0.508
2016-05-05 01:45:00,1953E-3,5C000400,-0724,0835,12234,030.9,045.5,0.250,753.8,01.17,0.508
2016-05-05 01:46:00,1925E-3,5C000400,-0724,0834,12274,030.9,045.5,0.250,753.8,01.17,0.508
2016-05-05 01:47:00,1955E-3,5C000400,-0724,0834,12258,030.8,045.5,0.250,753.8,01.17,0.508
2016-05-05 01:48:00,1935E-3,5C000400,-0724,0834,12074,030.8,045.5,0.250,753.8,01.17,0.508
2016-05-05 01:49:00,1956E-3,5C000400,-0724,0835,12195,030.8,045.5,0.250,753.8,01.17,0.508
2016-05-05 01:50:00,1936E-3,5C000400,-0724,0835,12080,030.8,045.5,0.250,753.8,01.17,0.508
2016-05-05 01:51:00,1946E-3,5C000400,-0724,0834,12139,030.8,045.5,0.250,753.8,01.17,0.508
2016-05-05 01:52:00,1906E-3,5C000400,-0724,0834,12163,030.7,045.5,0.250,753.8,01.17,0.508
2016-05-05 01:53:00,1910E-3,5C000400,-0724,0834,12158,030.7,045.5,0.250,753.8,01.17,0.508
2016-05-05 01:54:00,1910E-3,5C000400,-0724,0834,12137,030.7,045.5,0.250,753.8,01.17,0.508
2016-05-05 01:55:00,2207E-3,5C000400,-0724,0834,12181,030.7,045.5,0.250,753.8,01.17,0.508
2016-05-05 01:56:00,1914E-3,5C000400,-0724,0835,12109,030.7,045.5,0.250,753.8,01.17,0.508
2016-05-05 01:57:00,2004E-3,5C000400,-0724,0834,12184,030.6,045.5,0.250,753.8,01.17,0.508
2016-05-05 01:58:00,1950E-3,5C000400,-0724,0834,11997,030.6,045.5,0.250,753.8,01.17,0.508
2016-05-05 01:59:00,1978E-3,5C000400,-0724,0834,12285,030.6,045.5,0.250,753.9,01.17,0.508
2016-05-05 02:00:00,1963E-3,5C000400,-0724,0833,12083,030.6,045.5,0.250,753.8,01.17,0.508
2016-05-05 02:01:00,2093E-3,5C000400,-0724,0835,12147,030.6,045.5,0.250,753.8,01.17,0.508
2016-05-05 02:02:00,2009E-3,5C000400,-0724,0834,12095,030.6,045.5,0.250,753.8,01.17,0.508
2016-05-05 02:03:00,1852E-3,5C000400,-0724,0833,12165,030.5,045.5,0.250,753.9,01.17,0.508
2016-05-05 02:04:00,1920E-3,5C000400,-0724,0833,12146,030.5,045.5,0.251,753.9,01.17,0.508
2016-05-05 02:05:00,1818E-3,5C000400,-0724,0833,12196,030.5,045.5,0.251,753.9,01.17,0.508
2016-05-05 02:06:00,1950E-3,5C000400,-0724,0834,12168,030.5,045.5,0.250,753.9,01.17,0.508
2016-05-05 02:07:00,1887E-3,5C000400,-0724,0833,12007,030.5,045.5,0.250,753.9,01.17,0.508
2016-05-05 02:08:00,1923E-3,5C000400,-0724,0833,12165,030.5,045.5,0.251,753.9,01.17,0.508
2016-05-05 02:09:00,1899E-3,5C000400,-0724,0834,12131,030.5,045.5,0.251,753.9,01.17,0.508
2016-05-05 02:10:00,1836E-3,5C000400,-0724,0833,12174,030.5,045.5,0.251,753.8,01.17,0.508
2016-05-05 02:11:00,1938E-3,5C000400,-0724,0833,12238,030.5,045.5,0.250,753.9,01.17,0.508
2016-05-05 02:12:00,1884E-3,5C000400,-0724,0833,12147,030.5,045.5,0.250,753.9,01.17,0.508
2016-05-05 02:13:00,2067E-3,5C000400,-0724,0834,12100,030.5,045.5,0.251,753.9,01.17,0.508
2016-05-05 02:14:00,1865E-3,5C000400,-0724,0833,12274,030.5,045.5,0.251,753.9,01.17,0.508
2016-05-05 02:15:00,2047E-3,5C000400,-0724,0834,12265,030.4,045.5,0.251,753.9,01.17,0.508
2016-05-05 02:16:00,1811E-3,5C000400,-0724,0834,12189,030.4,045.5,0.251,753.9,01.17,0.508
2016-05-05 02:17:00,1929E-3,5C000400,-0724,0835,12252,030.5,045.5,0.251,753.9,01.17,0.508
2016-05-05 02:18:00,1865E-3,5C000400,-0724,0834,12116,030.4,045.5,0.250,753.9,01.17,0.508
2016-05-05 02:19:00,1989E-3,5C000400,-0724,0834,12200,030.4,045.5,0.251,753.9,01.17,0.508
2016-05-05 02:20:00,1994E-3,5C000400,-0724,0833,12151,030.4,045.5,0.251,753.9,01.17,0.508
2016-05-05 02:21:00,1992E-3,5C000400,-0724,0834,12108,030.4,045.5,0.251,753.9,01.17,0.508
2016-05-05 02:22:00,1960E-3,5C000400,-0724,0833,12194,030.4,045.5,0.251,753.9,01.17,0.508
2016-05-05 02:23:00,1848E-3,5C000400,-0724,0834,12118,030.3,045.5,0.251,753.9,01.17,0.508
2016-05-05 02:24:00,1995E-3,5C000400,-0724,0834,12253,030.3,045.5,0.250,753.9,01.17,0.508
2016-05-05 02:25:00,1953E-3,5C000400,-0724,0833,12137,030.4,045.5,0.251,753.9,01.17,0.508
2016-05-05 02:26:00,1927E-3,5C000400,-0724,0833,12044,030.4,045.5,0.251,753.8,01.17,0.508
2016-05-05 02:27:00,1985E-3,5C000400,-0724,0834,12191,030.3,045.5,0.251,753.8,01.17,0.508
2016-05-05 02:28:00,1828E-3,5C000400,-0724,0833,12118,030.3,045.5,0.251,753.8,01.17,0.508
2016-05-05 02:29:00,1897E-3,5C000400,-0724,0834,12123,030.3,045.5,0.251,753.8,01.17,0.508
2016-05-05 02:30:00,1806E-3,5C000400,-0724,0835,12128,030.3,045.5,0.251,753.8,01.17,0.508
2016-05-05 02:31:00,2005E-3,5C000400,-0724,0834,12243,030.3,045.5,0.250,753.8,01.17,0.508
2016-05-05 02:32:00,1927E-3,5C000400,-0724,0833,12017,030.3,045.5,0.251,753.8,01.17,0.508
2016-05-05 02:33:00,1879E-3,5C000400,-0724,0834,12039,030.4,045.5,0.251,753.8,01.17,0.508
2016-05-05 02:34:00,1891E-3,5C000400,-0724,0833,12119,030.4,045.5,0.251,753.8,01.17,0.508
2016-05-05 02:35:00,2040E-3,5C000400,-0724,0834,12149,030.4,045.5,0.251,753.8,01.17,0.508
2016-05-05 02:36:00,1855E-3,5C000400,-0724,0833,12109,030.3,045.5,0.251,753.8,01.17,0.508
2016-05-05 02:37:00,1757E-3,5C000400,-0724,0833,12135,030.3,045.5,0.251,753.8,01.17,0.508
2016-05-05 02:38:00,1923E-3,5C000400,-0724,0833,12091,030.3,045.5,0.251,753.8,01.17,0.508
2016-05-05 02:39:00,1936E-3,5C000400,-0724,0833,12209,030.3,045.5,0.251,753.9,01.17,0.508
2016-05-05 02:40:00,1925E-3,5C000400,-0724,0833,12103,030.3,045.5,0.251,753.8,01.17,0.508
2016-05-05 02:41:00,1881E-3,5C000400,-0724,0834,11992,030.3,045.5,0.251,753.8,01.17,0.508
2016-05-05 02:42:00,1835E-3,5C000400,-0724,0834,12116,030.3,045.5,0.251,753.8,01.17,0.508
2016-05-05 02:43:00,1962E-3,5C000400,-0724,0834,12153,030.4,045.5,0.251,753.8,01.17,0.508
2016-05-05 02:44:00,1964E-3,5C000400,-0724,0834,12104,030.4,045.5,0.251,753.8,01.17,0.508
2016-05-05 02:45:00,1877E-3,5C000400,-0724,0834,12022,030.3,045.5,0.251,753.8,01.17,0.508
2016-05-05 02:46:00,1983E-3,5C000400,-0724,0834,11973,030.3,045.5,0.251,753.8,01.17,0.508
2016-05-05 02:47:00,1877E-3,5C000400,-0724,0834,12186,030.4,045.5,0.251,753.8,01.17,0.508
2016-05-05 02:48:00,2060E-3,5C000400,-0724,0834,11964,030.3,045.5,0.251,753.8,01.17,0.508
2016-05-05 02:49:00,1864E-3,5C000400,-0724,0834,12172,030.3,045.5,0.251,753.8,01.17,0.508
2016-05-05 02:50:00,1910E-3,5C000400,-0724,0834,12140,030.3,045.5,0.251,753.8,01.17,0.508
2016-05-05 02:51:00,1966E-3,5C000400,-0724,0833,12151,030.3,045.5,0.251,753.8,01.17,0.508
2016-05-05 02:52:00,2053E-3,5C000400,-0724,0834,12065,030.3,045.5,0.251,753.8,01.17,0.508
2016-05-05 02:53:00,2021E-3,5C000400,-0724,0834,12152,030.3,045.5,0.251,753.8,01.17,0.508
2016-05-05 02:54:00,1928E-3,5C000400,-0724,0834,12188,030.3,045.5,0.251,753.9,01.17,0.508
2016-05-05 02:55:00,1980E-3,5C000400,-0724,0834,12139,030.3,045.5,0.251,753.8,01.17,0.508
2016-05-05 02:56:00,1982E-3,5C000400,-0724,0834,12015,030.3,045.5,0.251,753.8,01.17,0.508
2016-05-05 02:57:00,1976E-3,5C000400,-0724,0834,12090,030.3,045.5,0.251,753.8,01.17,0.508
2016-05-05 02:58:00,1956E-3,5C000400,-0724,0834,12081,030.3,045.5,0.251,753.8,01.17,0.508
2016-05-05 02:59:00,1971E-3,5C000400,-0724,0834,12075,030.3,045.5,0.251,753.8,01.17,0.508
2016-05-05 03:00:00,1993E-3,5C000400,-0724,0834,12141,030.2,045.5,0.251,753.8,01.17,0.508
2016-05-05 03:01:00,1874E-3,5C000400,-0724,0834,12138,030.3,045.5,0.251,753.8,01.17,0.508
2016-05-05 03:02:00,1811E-3,5C000400,-0724,0833,12114,030.3,045.5,0.251,753.8,01.17,0.508
2016-05-05 03:03:00,1876E-3,5C000400,-0724,0834,12040,030.3,045.5,0.251,753.9,01.17,0.508
2016-05-05 03:04:00,1879E-3,5C000400,-0724,0834,12047,030.3,045.5,0.251,753.9,01.17,0.508
2016-05-05 03:05:00,1995E-3,5C000400,-0724,0834,12167,030.3,045.5,0.251,753.9,01.17,0.508
2016-05-05 03:06:00,1878E-3,5C000400,-0724,0834,12120,030.3,045.5,0.251,753.9,01.17,0.508
2016-05-05 03:07:00,1982E-3,5C000400,-0724,0835,12122,030.2,045.5,0.251,753.9,01.17,0.508
2016-05-05 03:08:00,2066E-3,5C000400,-0724,0834,12132,030.3,045.5,0.251,753.9,01.17,0.508
2016-05-05 03:09:00,1853E-3,5C000400,-0724,0834,12148,030.3,045.5,0.251,753.9,01.17,0.508
2016-05-05 03:10:00,1919E-3,5C000400,-0724,0834,12079,030.2,045.5,0.251,753.8,01.17,0.508
2016-05-05 03:11:00,1777E-3,5C000400,-0724,0834,12116,030.2,045.5,0.251,753.9,01.17,0.508
2016-05-05 03:12:00,1935E-3,5C000400,-0724,0834,12142,030.3,045.5,0.251,753.8,01.17,0.508
2016-05-05 03:13:00,1855E-3,5C000400,-0724,0834,11971,030.3,045.5,0.251,753.8,01.17,0.508
2016-05-05 03:14:00,1880E-3,5C000400,-0724,0835,12143,030.2,045.5,0.251,753.8,01.17,0.508
2016-05-05 03:15:00,1943E-3,5C000400,-0724,0835,12038,030.2,045.5,0.251,753.8,01.17,0.508
2016-05-05 03:16:00,1924E-3,5C000400,-0724,0834,12085,030.2,045.5,0.251,753.8,01.17,0.508
2016-05-05 03:17:00,1857E-3,5C000400,-0724,0833,12017,030.2,045.5,0.251,753.8,01.17,0.508
2016-05-05 03:18:00,1837E-3,5C000400,-0724,0835,12098,030.2,045.5,0.251,753.8,01.17,0.508
2016-05-05 03:19:00,1866E-3,5C000400,-0724,0834,12340,030.2,045.5,0.251,753.8,01.17,0.508
2016-05-05 03:20:00,2007E-3,5C000400,-0724,0834,12170,030.1,045.5,0.251,753.9,01.17,0.508
2016-05-05 03:21:00,1926E-3,5C000400,-0724,0833,12108,030.2,045.5,0.251,753.8,01.17,0.508
2016-05-05 03:22:00,1966E-3,5C000400,-0724,0835,12154,030.2,045.5,0.251,753.8,01.17,0.508
2016-05-05 03:23:00,1919E-3,5C000400,-0724,0833,12284,030.2,045.5,0.251,753.8,01.17,0.508
2016-05-05 03:24:00,1898E-3,5C000400,-0724,0833,12227,030.1,045.5,0.251,753.8,01.17,0.508
2016-05-05 03:25:00,1952E-3,5C000400,-0724,0833,12184,030.2,045.5,0.251,753.9,01.17,0.508
2016-05-05 03:26:00,1821E-3,5C000400,-0724,0834,12094,030.2,045.5,0.251,753.9,01.17,0.508
2016-05-05 03:27:00,1881E-3,5C000400,-0724,0834,12080,030.2,045.5,0.251,753.8,01.17,0.508
2016-05-05 03:28:00,2016E-3,5C000400,-0724,0834,12081,030.2,045.5,0.251,753.9,01.17,0.508
2016-05-05 03:29:00,1910E-3,5C000400,-0724,0833,12295,030.2,045.5,0.251,753.9,01.17,0.508
2016-05-05 03:30:00,1940E-3,5C000400,-0724,0833,12294,030.2,045.5,0.251,753.9,01.17,0.508
2016-05-05 03:31:00,1910E-3,5C000400,-0724,0833,11984,030.1,045.5,0.251,753.9,01.17,0.508
2016-05-05 03:32:00,1970E-3,5C000400,-0724,0833,12172,030.2,045.5,0.251,753.9,01.17,0.508
2016-05-05 03:33:00,1915E-3,5C000400,-0724,0834,12183,030.2,045.5,0.251,753.9,01.17,0.508
2016-05-05 03:34:00,1891E-3,5C000400,-0724,0833,11966,030.2,045.5,0.251,753.8,01.17,0.508
2016-05-05 03:35:00,1966E-3,5C000400,-0724,0833,12216,030.1,045.5,0.251,753.9,01.17,0.508
2016-05-05 03:36:00,1914E-3,5C000400,-0724,0833,12172,030.1,045.5,0.251,753.9,01.17,0.508
2016-05-05 03:37:00,1882E-3,5C000400,-0724,0834,12161,030.1,045.5,0.251,753.9,01.17,0.508
2016-05-05 03:38:00,1848E-3,5C000400,-0724,0834,12134,030.1,045.5,0.251,753.9,01.17,0.508
2016-05-05 03:39:00,1968E-3,5C000400,-0724,0833,12143,030.1,045.5,0.251,753.9,01.17,0.508
2016-05-05 03:40:00,1971E-3,5C000400,-0724,0834,12186,030.2,045.5,0.251,753.9,01.17,0.508
2016-05-05 03:41:00,2099E-3,5C000400,-0724,0834,12133,030.1,045.5,0.251,754.0,01.17,0.508
2016-05-05 03:42:00,2048E-3,5C000400,-0724,0833,11965,030.1,045.5,0.251,754.0,01.17,0.508
2016-05-05 03:43:00,2003E-3,5C000400,-0724,0834,12259,030.1,045.5,0.251,754.0,01.17,0.508
2016-05-05 03:44:00,1761E-3,5C000400,-0724,0834,12228,030.1,045.5,0.251,754.0,01.17,0.508
2016-05-05 03:45:00,1880E-3,5C000400,-0724,0835,12319,030.1,045.5,0.251,754.0,01.17,0.508
2016-05-05 03:46:00,1887E-3,5C000400,-0724,0835,12257,030.1,045.5,0.251,754.0,01.17,0.508
2016-05-05 03:47:00,1993E-3,5C000400,-0724,0833,11952,030.0,045.5,0.251,754.0,01.17,0.508
2016-05-05 03:48:00,2022E-3,5C000400,-0724,0834,12187,030.0,045.5,0.251,754.0,01.17,0.508
2016-05-05 03:49:00,1922E-3,5C000400,-0724,0834,12060,030.0,045.5,0.251,754.0,01.17,0.508
2016-05-05 03:50:00,1948E-3,5C000400,-0724,0834,12199,030.0,045.5,0.251,754.0,01.17,0.508
2016-05-05 03:51:00,1993E-3,5C000400,-0724,0834,12039,030.0,045.5,0.251,753.9,01.17,0.508
2016-05-05 03:52:00,1936E-3,5C000400,-0724,0834,12206,030.1,045.5,0.252,753.9,01.17,0.508
2016-05-05 03:53:00,1960E-3,5C000400,-0724,0833,12010,030.2,045.5,0.251,754.0,01.17,0.508
2016-05-05 03:54:00,1926E-3,5C000400,-0724,0833,12223,030.1,045.5,0.251,754.0,01.17,0.508
2016-05-05 03:55:00,1860E-3,5C000400,-0724,0834,12102,030.1,045.5,0.251,754.0,01.17,0.508
2016-05-05 03:56:00,1880E-3,5C000400,-0724,0833,12196,030.0,045.5,0.251,753.9,01.17,0.508
2016-05-05 03:57:00,1993E-3,5C000400,-0724,0834,12239,030.0,045.5,0.251,753.9,01.17,0.508
2016-05-05 03:58:00,1925E-3,5C000400,-0724,0833,12033,030.0,045.5,0.251,753.9,01.17,0.508
2016-05-05 03:59:00,1968E-3,5C000400,-0724,0833,12108,030.0,045.5,0.252,753.9,01.17,0.508
2016-05-05 04:00:00,2095E-3,5C000400,-0724,0834,12048,029.9,045.5,0.251,753.9,01.17,0.508
2016-05-05 04:01:00,1894E-3,5C000400,-0724,0834,12179,029.9,045.5,0.251,753.9,01.17,0.508
2016-05-05 04:02:00,1903E-3,5C000400,-0724,0834,12333,030.0,045.5,0.251,753.9,01.17,0.508
2016-05-05 04:03:00,1902E-3,5C000400,-0724,0834,12060,030.0,045.5,0.251,753.9,01.17,0.508
2016-05-05 04:04:00,1965E-3,5C000400,-0724,0833,12072,030.0,045.5,0.251,753.9,01.17,0.508
2016-05-05 04:05:00,2044E-3,5C000400,-0724,0834,12236,030.0,045.5,0.251,753.9,01.17,0.508
2016-05-05 04:06:00,1966E-3,5C000400,-0724,0834,12082,030.0,045.5,0.252,753.9,01.17,0.508
2016-05-05 04:07:00,2038E-3,5C000400,-0724,0834,12150,030.0,045.5,0.252,753.9,01.17,0.508
2016-05-05 04:08:00,1810E-3,5C000400,-0724,0834,12056,029.9,045.5,0.252,753.8,01.17,0.508
2016-05-05 04:09:00,1848E-3,5C000400,-0724,0833,12138,030.0,045.5,0.252,753.8,01.17,0.508
2016-05-05 04:10:00,1883E-3,5C000400,-0724,0834,12123,029.9,045.5,0.252,753.9,01.17,0.508
2016-05-05 04:11:00,2093E-3,5C000400,-0724,0834,12114,030.0,045.5,0.252,753.9,01.17,0.508
2016-05-05 04:12:00,1791E-3,5C000400,-0724,0832,11955,029.9,045.5,0.251,753.9,01.17,0.508
2016-05-05 04:13:00,1934E-3,5C000400,-0724,0834,12001,029.9,045.5,0.251,753.9,01.17,0.508
2016-05-05 04:14:00,1963E-3,5C000400,-0724,0834,12157,029.9,045.5,0.251,753.9,01.17,0.508
2016-05-05 04:15:00,1933E-3,5C000400,-0724,0833,12056,030.0,045.5,0.252,753.9,01.17,0.508
2016-05-05 04:16:00,2004E-3,5C000400,-0724,0835,12254,029.9,045.5,0.252,753.9,01.17,0.508
2016-05-05 04:17:00,2009E-3,5C000400,-0724,0833,12264,029.9,045.5,0.252,753.9,01.17,0.508
2016-05-05 04:18:00,1975E-3,5C000400,-0724,0834,12155,029.9,045.5,0.252,753.9,01.17,0.508
2016-05-05 04:19:00,2069E-3,5C000400,-0724,0834,12197,030.0,045.5,0.252,753.9,01.17,0.508
2016-05-05 04:20:00,1825E-3,5C000400,-0724,0834,12214,029.9,045.5,0.251,753.9,01.17,0.508